| time (UTC) | temp F | wind direction | speed knots | gust knots | rain 1hr in | rain 24hr in | rain mn in | humidity % | barometer mb |
| 20260507012344 | 69 | 10 | 1.7 | 4.3 | 0.00 | 0.00 | 0.00 | 59 | 1014.4 |
| 20260507011351 | 70 | 28 | 0.9 | 2.6 | 0.00 | 0.00 | 0.00 | 58 | 1014.4 |
| 20260507010328 | 70 | 22 | 1.7 | 5.2 | 0.00 | 0.00 | 0.00 | 58 | 1014.4 |
| 20260507005324 | 70 | 24 | 0.9 | 3.5 | 0.00 | 0.00 | 0.00 | 58 | 1014.5 |
| 20260507004356 | 71 | 39 | 1.7 | 4.3 | 0.00 | 0.00 | 0.00 | 57 | 1014.3 |
| 20260507003400 | 71 | 266 | 2.6 | 3.5 | 0.00 | 0.00 | 0.00 | 57 | 1014.3 |
| 20260507002336 | 72 | 267 | 0.9 | 4.3 | 0.00 | 0.00 | 0.00 | 56 | 1014.3 |
| 20260507001334 | 72 | 244 | 1.7 | 8.7 | 0.00 | 0.00 | 0.00 | 54 | 1014.4 |
| 20260507000336 | 73 | 40 | 4.3 | 9.6 | 0.00 | 0.00 | 0.00 | 51 | 1014.4 |
| 20260506235333 | 74 | 26 | 3.5 | 8.7 | 0.00 | 0.00 | 0.00 | 50 | 1014.3 |
| 20260506234331 | 74 | 20 | 6.1 | 9.6 | 0.00 | 0.00 | 0.00 | 50 | 1014.4 |
| 20260506233332 | 74 | 327 | 1.7 | 7.8 | 0.00 | 0.00 | 0.00 | 49 | 1014.4 |
| 20260506232331 | 75 | 9 | 2.6 | 6.1 | 0.00 | 0.00 | 0.00 | 48 | 1014.4 |
| 20260506231357 | 75 | 5 | 5.2 | 9.6 | 0.00 | 0.00 | 0.00 | 48 | 1014.8 |
| 20260506230338 | 75 | 24 | 3.5 | 8.7 | 0.00 | 0.00 | 0.00 | 48 | 1014.8 |
| 20260506225317 | 76 | 20 | 1.7 | 5.2 | 0.00 | 0.00 | 0.00 | 46 | 1014.8 |
| 20260506224316 | 75 | 37 | 1.7 | 7.0 | 0.00 | 0.00 | 0.00 | 45 | 1014.7 |
| 20260506223329 | 75 | 11 | 2.6 | 7.8 | 0.00 | 0.00 | 0.00 | 45 | 1014.7 |
| 20260506222328 | 74 | 12 | 3.5 | 7.8 | 0.00 | 0.00 | 0.00 | 47 | 1015.1 |
| 20260506221354 | 74 | 45 | 3.5 | 7.8 | 0.00 | 0.00 | 0.00 | 47 | 1015.2 |
| 20260506220330 | 74 | 20 | 1.7 | 7.8 | 0.00 | 0.00 | 0.00 | 49 | 1015.2 |
| 20260506215340 | 74 | 9 | 1.7 | 7.8 | 0.00 | 0.00 | 0.00 | 48 | 1015.3 |
| 20260506214347 | 74 | 360 | 2.6 | 6.1 | 0.00 | 0.00 | 0.00 | 48 | 1015.5 |
| 20260506213320 | 73 | 23 | 5.2 | 8.7 | 0.00 | 0.00 | 0.00 | 49 | 1015.5 |
| 20260506212322 | 73 | 360 | 3.5 | 7.0 | 0.00 | 0.00 | 0.00 | 49 | 1015.8 |
| 20260506211345 | 74 | 360 | 1.7 | 6.1 | 0.00 | 0.00 | 0.00 | 46 | 1015.8 |
| 20260506210332 | 74 | 360 | 2.6 | 6.1 | 0.00 | 0.00 | 0.00 | 47 | 1015.8 |
| 20260506205341 | 73 | 360 | 1.7 | 9.6 | 0.00 | 0.00 | 0.00 | 48 | 1015.9 |
| 20260506204319 | 71 | 346 | 5.2 | 7.8 | 0.00 | 0.00 | 0.00 | 52 | 1016.1 |
| 20260506203325 | 72 | 113 | 1.7 | 4.3 | 0.00 | 0.00 | 0.00 | 50 | 1016.1 |
| 20260506202334 | 72 | 23 | 2.6 | 6.1 | 0.00 | 0.00 | 0.00 | 50 | 1016.3 |
| 20260506201341 | 72 | 360 | 2.6 | 4.3 | 0.00 | 0.00 | 0.00 | 53 | 1016.4 |
| 20260506200338 | 70 | 360 | 5.2 | 9.6 | 0.00 | 0.00 | 0.00 | 56 | 1016.3 |
| 20260506195335 | 69 | 360 | 1.7 | 9.6 | 0.00 | 0.00 | 0.00 | 54 | 1016.4 |
| 20260506194328 | 68 | 360 | 0.0 | 6.1 | 0.00 | 0.00 | 0.00 | 58 | 1016.4 |
| 20260506193334 | 69 | 360 | 1.7 | 6.1 | 0.00 | 0.00 | 0.00 | 53 | 1016.5 |
| 20260506192336 | 68 | 360 | 4.3 | 6.1 | 0.00 | 0.00 | 0.00 | 57 | 1016.6 |
| 20260506191334 | 69 | 55 | 2.6 | 7.0 | 0.00 | 0.00 | 0.00 | 56 | 1016.8 |
| 20260506190354 | 68 | 5 | 2.6 | 5.2 | 0.00 | 0.00 | 0.00 | 60 | 1016.7 |
| 20260506185338 | 66 | 360 | 0.9 | 6.1 | 0.00 | 0.00 | 0.00 | 60 | 1016.8 |
| 20260506184337 | 65 | 34 | 1.7 | 4.3 | 0.00 | 0.00 | 0.00 | 62 | 1016.9 |
| 20260506183334 | 65 | 73 | 1.7 | 5.2 | 0.00 | 0.00 | 0.00 | 62 | 1016.9 |
| 20260506182336 | 63 | 31 | 0.9 | 4.3 | 0.00 | 0.00 | 0.00 | 65 | 1016.9 |
| 20260506181341 | 63 | 360 | 0.9 | 6.1 | 0.00 | 0.00 | 0.00 | 65 | 1016.9 |
| 20260506180321 | 62 | 5 | 1.7 | 6.1 | 0.00 | 0.00 | 0.00 | 67 | 1016.9 |
| 20260506175344 | 62 | 5 | 2.6 | 5.2 | 0.00 | 0.00 | 0.00 | 69 | 1016.9 |
| 20260506174322 | 61 | 32 | 1.7 | 4.3 | 0.00 | 0.00 | 0.00 | 70 | 1017.0 |
| 20260506173405 | 60 | 360 | 1.7 | 3.5 | 0.00 | 0.00 | 0.00 | 72 | 1016.9 |
| 20260506172323 | 59 | 20 | 1.7 | 2.6 | 0.00 | 0.00 | 0.00 | 74 | 1017.1 |
| 20260506171338 | 58 | 279 | 0.0 | 1.7 | 0.00 | 0.00 | 0.00 | 74 | 1017.2 |
| 20260506170334 | 58 | 17 | 1.7 | 5.2 | 0.00 | 0.00 | 0.00 | 75 | 1017.2 |
| 20260506165332 | 57 | 24 | 0.9 | 4.3 | 0.00 | 0.00 | 0.00 | 76 | 1017.2 |
| 20260506164331 | 57 | 12 | 0.0 | 3.5 | 0.00 | 0.00 | 0.00 | 78 | 1017.2 |
| 20260506163327 | 56 | 28 | 1.7 | 3.5 | 0.00 | 0.00 | 0.00 | 79 | 1017.2 |
| 20260506161328 | 56 | 25 | 0.0 | 0.0 | 0.00 | 0.00 | 0.00 | 79 | 1017.2 |
| 20260506160325 | 55 | 26 | 0.0 | 0.0 | 0.00 | 0.00 | 0.00 | 80 | 1017.1 |
| 20260506155323 | 55 | 31 | 0.0 | 0.0 | 0.00 | 0.00 | 0.00 | 81 | 1017.1 |
| 20260506154320 | 55 | 32 | 0.0 | 0.0 | 0.00 | 0.00 | 0.00 | 81 | 1017.0 |
| 20260506153345 | 55 | 31 | 0.0 | 0.0 | 0.00 | 0.00 | 0.00 | 81 | 1017.0 |
| 20260506152320 | 55 | 24 | 0.0 | 0.0 | 0.00 | 0.00 | 0.00 | 83 | 1017.0 |
| 20260506151347 | 54 | 24 | 0.0 | 0.0 | 0.00 | 0.00 | 0.00 | 83 | 1017.0 |
| 20260506150322 | 54 | 24 | 0.0 | 0.0 | 0.00 | 0.00 | 0.00 | 83 | 1017.0 |
| 20260506145406 | 54 | 24 | 0.0 | 0.0 | 0.00 | 0.00 | 0.00 | 83 | 1016.9 |
| 20260506144343 | 54 | 24 | 0.0 | 0.0 | 0.00 | 0.00 | 0.00 | 84 | 1016.9 |
| 20260506143342 | 54 | 24 | 0.0 | 0.0 | 0.00 | 0.00 | 0.00 | 85 | 1016.9 |
| 20260506142338 | 54 | 24 | 0.0 | 0.0 | 0.00 | 0.00 | 0.00 | 85 | 1016.8 |
| 20260506141339 | 53 | 24 | 0.0 | 0.0 | 0.00 | 0.00 | 0.00 | 85 | 1016.8 |
| 20260506140336 | 54 | 24 | 0.0 | 0.0 | 0.00 | 0.00 | 0.00 | 86 | 1016.8 |
| 20260506135335 | 53 | 24 | 0.0 | 0.0 | 0.00 | 0.00 | 0.00 | 86 | 1016.4 |
| 20260506134332 | 53 | 24 | 0.0 | 0.0 | 0.00 | 0.00 | 0.00 | 86 | 1016.3 |
| 20260506133332 | 53 | 24 | 0.0 | 0.0 | 0.00 | 0.00 | 0.00 | 86 | 1016.3 |
| 20260506132321 | 53 | 24 | 0.9 | 3.5 | 0.00 | 0.00 | 0.00 | 86 | 1016.1 |
| 20260506131345 | 53 | 272 | 0.0 | 0.0 | 0.00 | 0.00 | 0.00 | 86 | 1015.9 |
| 20260506130344 | 53 | 272 | 0.0 | 0.0 | 0.00 | 0.00 | 0.00 | 86 | 1015.9 |
| 20260506125343 | 53 | 272 | 0.0 | 0.0 | 0.00 | 0.00 | 0.00 | 86 | 1015.8 |
| 20260506124340 | 53 | 272 | 0.0 | 0.0 | 0.00 | 0.00 | 0.00 | 86 | 1015.8 |
| 20260506123337 | 53 | 272 | 0.0 | 0.0 | 0.00 | 0.00 | 0.00 | 86 | 1015.8 |
| 20260506122340 | 53 | 272 | 0.0 | 0.0 | 0.00 | 0.00 | 0.00 | 87 | 1015.8 |
| 20260506121346 | 53 | 272 | 0.0 | 0.0 | 0.00 | 0.00 | 0.00 | 87 | 1015.7 |
| 20260506120338 | 53 | 272 | 0.0 | 0.0 | 0.00 | 0.00 | 0.00 | 87 | 1015.7 |
| 20260506115335 | 53 | 272 | 0.0 | 0.0 | 0.00 | 0.00 | 0.00 | 87 | 1015.7 |
| 20260506114336 | 53 | 272 | 0.0 | 0.0 | 0.00 | 0.00 | 0.00 | 87 | 1015.5 |
| 20260506113336 | 53 | 272 | 0.0 | 0.0 | 0.00 | 0.00 | 0.00 | 87 | 1015.5 |
| 20260506112331 | 52 | 272 | 0.0 | 0.0 | 0.00 | 0.00 | 0.00 | 87 | 1015.6 |
| 20260506111334 | 52 | 272 | 0.0 | 0.0 | 0.00 | 0.00 | 0.00 | 86 | 1015.3 |
| 20260506110335 | 52 | 272 | 0.0 | 0.0 | 0.00 | 0.00 | 0.00 | 85 | 1015.3 |
| 20260506105333 | 53 | 272 | 0.0 | 0.0 | 0.00 | 0.00 | 0.00 | 83 | 1015.3 |
| 20260506104333 | 53 | 272 | 0.0 | 0.0 | 0.00 | 0.00 | 0.00 | 82 | 1015.2 |
| 20260506103332 | 54 | 272 | 0.0 | 0.0 | 0.00 | 0.00 | 0.00 | 81 | 1015.3 |
| 20260506102334 | 54 | 272 | 0.0 | 0.0 | 0.00 | 0.00 | 0.00 | 81 | 1015.3 |
| 20260506101330 | 55 | 272 | 0.0 | 0.0 | 0.00 | 0.00 | 0.00 | 80 | 1015.3 |
| 20260506100349 | 55 | 272 | 0.0 | 0.0 | 0.00 | 0.00 | 0.00 | 80 | 1015.3 |
| 20260506095329 | 55 | 275 | 0.0 | 0.0 | 0.00 | 0.00 | 0.00 | 79 | 1015.3 |
| 20260506094328 | 55 | 275 | 0.0 | 0.0 | 0.00 | 0.00 | 0.00 | 79 | 1015.3 |
| 20260506093326 | 55 | 275 | 0.0 | 0.0 | 0.00 | 0.00 | 0.00 | 79 | 1015.3 |
| 20260506092328 | 55 | 275 | 0.0 | 0.0 | 0.00 | 0.00 | 0.00 | 79 | 1015.3 |
| 20260506091327 | 55 | 275 | 0.0 | 0.0 | 0.00 | 0.00 | 0.00 | 78 | 1015.3 |
| 20260506090352 | 55 | 275 | 0.0 | 0.0 | 0.00 | 0.00 | 0.00 | 78 | 1015.3 |
| 20260506085330 | 55 | 274 | 0.0 | 0.0 | 0.00 | 0.00 | 0.00 | 78 | 1015.3 |
| 20260506084327 | 55 | 274 | 0.0 | 0.0 | 0.00 | 0.00 | 0.00 | 77 | 1015.3 |
| 20260506083327 | 55 | 274 | 0.0 | 0.0 | 0.00 | 0.00 | 0.00 | 77 | 1015.3 |
| 20260506082326 | 55 | 274 | 0.0 | 0.0 | 0.00 | 0.00 | 0.00 | 77 | 1015.3 |
| 20260506081327 | 55 | 273 | 0.0 | 0.0 | 0.00 | 0.00 | 0.00 | 77 | 1015.3 |
| 20260506080326 | 55 | 273 | 0.0 | 0.0 | 0.00 | 0.00 | 0.00 | 76 | 1015.3 |
| 20260506073328 | 55 | 275 | 0.0 | 2.6 | 0.00 | 0.00 | 0.00 | 75 | 1015.2 |
| 20260506072353 | 55 | 265 | 0.9 | 2.6 | 0.00 | 0.00 | 0.00 | 75 | 1014.9 |
| 20260506071331 | 55 | 257 | 0.0 | 0.0 | 0.00 | 0.00 | 0.00 | 75 | 1014.8 |
| 20260506070401 | 55 | 252 | 0.0 | 4.3 | 0.00 | 0.00 | 0.00 | 74 | 1014.8 |
| 20260506062333 | 55 | 272 | 0.0 | 4.3 | 0.00 | 0.00 | 0.00 | 74 | 1014.7 |
| 20260506061330 | 55 | 255 | 1.7 | 6.1 | 0.00 | 0.00 | 0.00 | 74 | 1014.5 |
| 20260506060356 | 55 | 360 | 0.9 | 5.2 | 0.00 | 0.00 | 0.00 | 74 | 1014.5 |
| 20260506051329 | 56 | 360 | 0.9 | 5.2 | 0.00 | 0.00 | 0.00 | 75 | 1014.2 |
| 20260506050354 | 56 | 360 | 0.9 | 4.3 | 0.00 | 0.00 | 0.00 | 75 | 1014.2 |
| 20260506044333 | 56 | 360 | 1.7 | 4.3 | 0.00 | 0.00 | 0.00 | 74 | 1013.8 |
| 20260506043337 | 56 | 294 | 0.0 | 4.3 | 0.00 | 0.00 | 0.00 | 74 | 1013.8 |
| 20260506042337 | 56 | 224 | 0.9 | 6.1 | 0.00 | 0.00 | 0.00 | 74 | 1013.7 |
| 20260506041406 | 56 | 230 | 1.7 | 7.0 | 0.00 | 0.00 | 0.00 | 76 | 1013.6 |
| 20260506040343 | 57 | 257 | 0.9 | 4.3 | 0.00 | 0.00 | 0.00 | 73 | 1013.6 |
| 20260506035344 | 57 | 256 | 1.7 | 5.2 | 0.00 | 0.00 | 0.00 | 73 | 1013.3 |
| 20260506034343 | 57 | 253 | 0.0 | 4.3 | 0.00 | 0.00 | 0.00 | 73 | 1013.2 |
| 20260506033341 | 57 | 298 | 0.9 | 3.5 | 0.00 | 0.00 | 0.00 | 72 | 1013.2 |
| 20260506032340 | 57 | 302 | 0.0 | 2.6 | 0.00 | 0.00 | 0.00 | 72 | 1013.1 |
| 20260506031339 | 57 | 318 | 0.0 | 2.6 | 0.00 | 0.00 | 0.00 | 71 | 1012.8 |
| 20260506030333 | 57 | 225 | 0.9 | 3.5 | 0.00 | 0.00 | 0.00 | 71 | 1012.8 |
| 20260506025333 | 57 | 284 | 1.7 | 5.2 | 0.00 | 0.00 | 0.00 | 71 | 1012.6 |
| 20260506024337 | 57 | 261 | 1.7 | 5.2 | 0.00 | 0.00 | 0.00 | 70 | 1012.5 |
| 20260506023336 | 57 | 267 | 2.6 | 7.8 | 0.00 | 0.00 | 0.00 | 70 | 1012.5 |
| 20260506022333 | 58 | 254 | 1.7 | 6.1 | 0.00 | 0.00 | 0.00 | 70 | 1012.5 |
| 20260506021333 | 58 | 262 | 2.6 | 6.1 | 0.00 | 0.00 | 0.00 | 70 | 1012.6 |
| 20260506020332 | 58 | 254 | 1.7 | 7.8 | 0.00 | 0.00 | 0.00 | 70 | 1012.6 |
| 20260506015331 | 58 | 248 | 0.9 | 4.3 | 0.00 | 0.00 | 0.00 | 71 | 1012.6 |
| 20260506014330 | 58 | 259 | 1.7 | 5.2 | 0.00 | 0.00 | 0.00 | 70 | 1012.6 |
| 20260506013330 | 58 | 234 | 2.6 | 8.7 | 0.00 | 0.00 | 0.00 | 71 | 1012.6 |